Location: Brno
(49.2000°N, 16.6330°E)
Time: 04:09:48
(UTC+02:00)

Cosmos 1603 - Visible Passes

Search period start: 23 August 2017 00:00
Search period end: 02 September 2017 00:00
Orbit: 833 x 858 km, 71.0° (Epoch: 22 August)

Date Brightness Start Highest point End Pass type
(mag) Time Alt. Az. Time Alt. Az. Time Alt. Az.
23 Aug 4.9 00:13:18 29° ENE 00:13:18 29° ENE 00:16:48 10° NE visible
23 Aug 4.3 01:55:11 45° WNW 01:55:46 46° NW 02:01:12 10° NNE visible
23 Aug 6.0 03:38:38 10° WNW 03:41:24 14° NNW 03:44:10 10° N visible
23 Aug 5.0 23:59:35 27° ENE 23:59:35 27° ENE 00:02:51 10° NE visible
24 Aug 4.3 01:41:27 47° WNW 01:41:51 48° NW 01:47:17 10° NNE visible
24 Aug 6.0 03:24:37 10° WNW 03:27:27 14° NNW 03:30:17 10° N visible
24 Aug 5.1 23:45:49 26° ENE 23:45:49 26° ENE 23:48:54 10° NE visible
25 Aug 4.2 01:27:41 48° WNW 01:27:55 49° NW 01:33:22 10° NNE visible
25 Aug 6.0 03:10:35 10° WNW 03:13:29 14° NNW 03:16:24 10° N visible
25 Aug 5.1 23:32:02 25° ENE 23:32:02 25° ENE 23:34:57 10° NE visible
26 Aug 4.2 01:13:54 50° WNW 01:13:58 50° NW 01:19:28 10° NNE visible
26 Aug 6.0 02:56:33 10° WNW 02:59:32 14° NNW 03:02:31 10° N visible
26 Aug 5.2 23:18:13 24° ENE 23:18:13 24° ENE 23:21:00 10° NE visible
27 Aug 4.2 01:00:06 51° NW 01:00:06 51° NW 01:05:33 10° NNE visible
27 Aug 6.1 02:42:32 10° WNW 02:45:34 15° NNW 02:48:37 10° N visible
27 Aug 5.2 23:04:23 23° ENE 23:04:23 23° ENE 23:07:03 10° NE visible
28 Aug 4.2 00:46:15 52° NW 00:46:15 52° NW 00:51:38 10° NNE visible
28 Aug 6.1 02:28:30 10° WNW 02:31:37 15° NNW 02:34:44 10° N visible
28 Aug 5.2 22:50:30 22° ENE 22:50:30 22° ENE 22:53:06 10° NE visible
29 Aug 4.2 00:32:22 54° NW 00:32:22 54° NW 00:37:43 10° NNE visible
29 Aug 6.1 02:14:29 10° WNW 02:17:40 15° NNW 02:20:50 10° N visible
29 Aug 5.2 22:36:34 22° ENE 22:36:34 22° ENE 22:39:09 10° NE visible
30 Aug 4.2 00:18:26 55° NW 00:18:26 55° NW 00:23:48 10° NNE visible
30 Aug 6.1 02:00:28 10° WNW 02:03:42 15° NNW 02:06:57 10° N visible
30 Aug 5.1 22:22:36 22° ENE 22:22:36 22° ENE 22:25:12 10° NE visible
31 Aug 4.1 00:04:27 57° NW 00:04:27 57° NW 00:09:53 10° NNE visible
31 Aug 6.1 01:46:26 10° WNW 01:49:45 16° NNW 01:53:03 10° N visible
31 Aug 6.6 05:22:52 10° NNE 05:23:54 10° NNE 05:24:57 10° NNE visible
31 Aug 5.1 22:08:34 22° ENE 22:08:34 22° ENE 22:11:14 10° NE visible
31 Aug 4.1 23:50:25 58° NW 23:50:25 58° NW 23:55:58 10° NNE visible
01 Sep 6.1 01:32:25 10° WNW 01:35:48 16° NNW 01:39:10 10° N visible
01 Sep 6.7 05:09:05 10° NNE 05:09:56 10° NNE 05:10:48 10° NNE visible
01 Sep 5.0 21:54:26 22° ENE 21:54:26 22° ENE 21:57:17 10° NE visible
01 Sep 4.0 23:36:17 59° WNW 23:36:28 60° WNW 23:42:03 10° NNE visible
